GW4807 Weather Reports


Display with metric or nautical units.
time (UTC)temp
F
wind
direction
speed
MPH
gust
MPH
rain 1hr
in
rain 24hr
in
rain mn
in
humidity
%
barometer
mb
20260506212341 61 90 2.0 3.0 0.00 0.05 0.05 46 1009.6
20260506211836 61 84 3.0 5.0 0.00 0.05 0.05 48 1009.3
20260506211332 61 108 1.0 1.0 0.00 0.05 0.05 48 1009.4
20260506210824 64 53 3.0 3.0 0.00 0.05 0.05 47 1009.4
20260506210321 63 76 1.0 1.0 0.00 0.05 0.05 50 1009.4
20260506205818 64 78 1.0 2.0 0.00 0.05 0.05 46 1009.4
20260506205314 64 144 3.0 3.0 0.00 0.05 0.05 46 1009.7
20260506204811 64 76 1.0 2.0 0.00 0.05 0.05 51 1009.6
20260506204308 63 298 2.0 2.0 0.00 0.05 0.05 49 1009.8
20260506203806 62 132 3.0 5.0 0.00 0.05 0.05 49 1009.9
20260506203303 61 136 1.0 1.0 0.00 0.05 0.05 54 1009.7
20260506202800 61 74 1.0 1.0 0.00 0.05 0.05 60 1009.9
20260506202256 62 31 3.0 6.0 0.00 0.05 0.05 50 1010.0
20260506201747 64 324 2.0 2.0 0.00 0.05 0.05 55 1010.0
20260506201244 62 67 6.0 7.0 0.00 0.05 0.05 49 1009.9
20260506200741 61 132 0.0 0.0 0.00 0.05 0.05 53 1010.0
20260506200238 61 83 2.0 2.0 0.00 0.05 0.05 51 1010.1
20260506195734 62 110 3.0 3.0 0.00 0.05 0.05 55 1010.1
20260506195231 62 53 1.0 1.0 0.00 0.05 0.05 54 1010.2
20260506194728 62 132 1.0 2.0 0.00 0.05 0.05 52 1010.3
20260506194224 64 324 4.0 5.0 0.00 0.05 0.05 54 1010.6
20260506193723 65 184 1.0 1.0 0.00 0.05 0.05 50 1010.3
20260506193219 64 147 2.0 2.0 0.00 0.05 0.05 54 1010.7
20260506192715 62 113 1.0 1.0 0.00 0.05 0.05 58 1010.8
20260506192212 62 84 2.0 3.0 0.00 0.05 0.05 54 1010.6
20260506191708 62 57 1.0 1.0 0.00 0.05 0.05 57 1011.0
20260506191204 63 65 2.0 2.0 0.00 0.05 0.05 58 1010.8
20260506190702 62 127 0.0 1.0 0.00 0.05 0.05 59 1010.5
20260506190153 62 83 3.0 3.0 0.00 0.05 0.05 54 1010.9
20260506185651 61 126 0.0 1.0 0.00 0.05 0.05 59 1011.0
20260506185146 61 54 2.0 3.0 0.00 0.05 0.05 59 1011.2
20260506184644 61 182 2.0 3.0 0.00 0.05 0.05 60 1011.0
20260506184141 60 78 1.0 2.0 0.00 0.05 0.05 67 1011.0
20260506183638 60 140 1.0 1.0 0.00 0.05 0.05 60 1011.2
20260506183134 59 97 3.0 3.0 0.00 0.05 0.05 62 1011.0
20260506182632 59 130 1.0 2.0 0.00 0.05 0.05 63 1011.0
20260506182128 58 127 1.0 1.0 0.00 0.05 0.05 65 1011.1
20260506181626 58 102 1.0 1.0 0.00 0.05 0.05 65 1011.1
20260506181123 58 107 2.0 3.0 0.00 0.05 0.05 66 1011.2
20260506180620 58 253 3.0 5.0 0.00 0.05 0.05 67 1011.0
20260506180116 58 121 0.0 1.0 0.00 0.05 0.05 66 1011.0
20260506175613 58 99 1.0 2.0 0.00 0.05 0.05 68 1011.3
20260506175109 58 233 1.0 2.0 0.00 0.05 0.05 66 1011.1
20260506174608 57 205 1.0 2.0 0.00 0.05 0.05 67 1010.9
20260506174104 57 125 0.0 1.0 0.00 0.05 0.05 65 1010.8
20260506173602 57 87 1.0 2.0 0.00 0.05 0.05 63 1011.1
20260506173058 57 151 1.0 2.0 0.00 0.05 0.05 65 1011.0
20260506172556 57 120 0.0 1.0 0.00 0.05 0.05 66 1011.1
20260506172051 56 61 4.0 6.0 0.00 0.05 0.05 61 1011.0
20260506171549 57 69 1.0 2.0 0.00 0.05 0.05 64 1011.1
20260506171046 56 115 3.0 5.0 0.00 0.05 0.05 64 1010.8
20260506170543 56 93 3.0 5.0 0.00 0.05 0.05 61 1011.0
20260506170041 56 101 1.0 1.0 0.00 0.05 0.05 63 1011.1
20260506165539 55 118 0.0 1.0 0.00 0.05 0.05 63 1011.4
20260506165035 55 94 1.0 1.0 0.00 0.05 0.05 66 1011.4
20260506164532 55 55 1.0 2.0 0.00 0.05 0.05 66 1011.4
20260506164029 55 128 0.0 0.0 0.00 0.05 0.05 66 1011.5
20260506163525 55 239 2.0 2.0 0.00 0.05 0.05 70 1011.1
20260506163021 54 73 1.0 2.0 0.00 0.05 0.05 64 1011.4
20260506162518 54 104 0.0 0.0 0.00 0.05 0.05 70 1011.1
20260506162009 53 110 3.0 3.0 0.00 0.05 0.05 68 1011.2
20260506161506 54 127 2.0 2.0 0.00 0.05 0.05 67 1010.9
20260506160958 54 119 0.0 0.0 0.00 0.05 0.05 69 1011.2
20260506160456 54 132 0.0 0.0 0.00 0.05 0.05 70 1011.2
20260506155952 53 131 0.0 0.0 0.00 0.05 0.05 70 1011.1
20260506155451 53 135 1.0 1.0 0.00 0.05 0.05 69 1010.8
20260506153622 53 115 1.0 1.0 0.00 0.05 0.05 71 1010.9
20260506153119 53 121 0.0 0.0 0.00 0.05 0.05 74 1011.0
20260506152616 53 342 2.0 3.0 0.00 0.05 0.05 73 1011.0
20260506152114 53 136 2.0 2.0 0.00 0.05 0.05 73 1011.0
20260506151612 52 103 0.0 1.0 0.00 0.05 0.05 75 1010.6
20260506151109 53 87 1.0 1.0 0.00 0.05 0.05 73 1010.5
20260506150606 52 183 1.0 1.0 0.00 0.05 0.05 79 1010.8
20260506145600 52 79 2.0 2.0 0.00 0.05 0.05 74 1010.6
20260506145057 52 88 2.0 3.0 0.00 0.05 0.05 77 1010.6
20260506144554 52 129 0.0 0.0 0.00 0.05 0.05 81 1010.6
20260506144050 52 122 1.0 1.0 0.00 0.05 0.05 79 1010.3
20260506143548 51 160 0.0 1.0 0.00 0.05 0.05 81 1010.4
20260506143046 51 128 1.0 1.0 0.00 0.05 0.05 80 1010.3
20260506142544 51 329 3.0 3.0 0.00 0.05 0.05 82 1010.1
20260506142042 50 135 2.0 3.0 0.00 0.05 0.05 85 1010.4
20260506141539 49 179 1.0 2.0 0.00 0.05 0.05 88 1010.2
20260506141038 49 130 1.0 1.0 0.00 0.05 0.05 87 1010.0
20260506140535 49 88 4.0 5.0 0.00 0.05 0.05 87 1010.0
20260506140032 48 158 1.0 2.0 0.00 0.05 0.05 89 1010.1
20260506135528 48 108 1.0 1.0 0.00 0.05 0.05 91 1010.3
20260506135025 48 98 1.0 1.0 0.00 0.05 0.05 93 1010.0
20260506134521 47 103 0.0 1.0 0.00 0.05 0.05 93 1010.2
20260506134017 47 112 0.0 0.0 0.00 0.05 0.05 93 1010.2
20260506133515 47 111 2.0 2.0 0.00 0.05 0.05 94 1010.2
20260506133011 47 158 1.0 2.0 0.00 0.05 0.05 96 1010.3
20260506132508 47 131 0.0 0.0 0.00 0.05 0.05 97 1010.4
20260506132006 46 116 1.0 1.0 0.00 0.05 0.05 97 1009.8
20260506131504 46 92 0.0 0.0 0.00 0.05 0.05 98 1010.2
20260506131000 46 121 0.0 1.0 0.00 0.05 0.05 98 1010.3
20260506130456 45 74 1.0 2.0 0.00 0.05 0.05 99 1010.3
20260506125954 45 113 0.0 1.0 0.00 0.05 0.05 99 1010.2
20260506125452 45 70 1.0 1.0 0.00 0.05 0.05 99 1010.2
20260506124950 45 115 0.0 0.0 0.00 0.05 0.05 99 1010.2
20260506124447 45 109 0.0 1.0 0.00 0.05 0.05 99 1010.1
20260506123945 45 82 0.0 0.0 0.00 0.05 0.05 99 1010.2
20260506123443 45 134 1.0 1.0 0.00 0.05 0.05 99 1010.5
20260506122939 45 69 0.0 0.0 0.00 0.05 0.05 99 1010.2
20260506122436 45 104 0.0 1.0 0.00 0.05 0.05 99 1010.3
20260506121936 45 45 1.0 2.0 0.00 0.05 0.05 99 1010.4
20260506121432 45 127 0.0 0.0 0.00 0.05 0.05 99 1010.4
20260506120928 45 90 0.0 1.0 0.00 0.05 0.05 99 1010.2
20260506120426 44 75 1.0 1.0 0.00 0.05 0.05 99 1010.0
20260506115923 44 115 0.0 0.0 0.00 0.05 0.05 99 1009.8
20260506115421 44 117 0.0 0.0 0.00 0.05 0.05 99 1009.5
20260506114919 44 122 0.0 0.0 0.00 0.05 0.05 99 1009.4
20260506114416 44 124 0.0 0.0 0.00 0.05 0.05 99 1009.5
20260506113915 44 116 0.0 0.0 0.00 0.05 0.05 99 1008.9
20260506113412 44 96 0.0 0.0 0.00 0.05 0.05 99 1009.3
20260506112908 44 118 0.0 0.0 0.00 0.05 0.05 99 1009.1
20260506112406 44 150 2.0 3.0 0.00 0.05 0.05 99 1009.2
20260506111903 44 132 0.0 1.0 0.00 0.05 0.05 99 1008.9
20260506111401 44 112 1.0 1.0 0.00 0.05 0.05 99 1008.8
20260506110858 44 118 0.0 0.0 0.00 0.05 0.05 99 1008.7
20260506110355 44 124 0.0 0.0 0.00 0.05 0.05 99 1008.8
20260506105852 44 100 1.0 1.0 0.00 0.05 0.05 99 1008.5
20260506105349 44 123 0.0 0.0 0.00 0.05 0.05 99 1008.5
20260506104846 44 115 0.0 0.0 0.00 0.05 0.05 99 1008.5
20260506104344 44 133 1.0 1.0 0.00 0.05 0.05 99 1008.2
20260506103841 44 119 0.0 0.0 0.00 0.05 0.05 99 1008.0
20260506103339 44 110 0.0 0.0 0.00 0.05 0.05 99 1008.4
20260506102836 44 108 0.0 0.0 0.00 0.05 0.05 99 1008.1
20260506102334 44 121 0.0 0.0 0.00 0.05 0.05 99 1008.8
20260506101831 44 107 0.0 0.0 0.00 0.05 0.05 99 1008.0
20260506101326 44 121 0.0 0.0 0.00 0.05 0.05 99 1007.6
20260506100825 44 100 1.0 1.0 0.00 0.05 0.05 99 1007.9
20260506100323 44 127 0.0 0.0 0.00 0.05 0.05 99 1008.0
20260506095821 44 114 0.0 0.0 0.00 0.05 0.05 99 1008.2
20260506095318 44 119 0.0 0.0 0.00 0.05 0.05 99 1008.6
20260506094815 44 157 0.0 0.0 0.00 0.05 0.05 99 1008.4
20260506094313 44 122 0.0 0.0 0.00 0.05 0.05 99 1007.6
20260506093811 44 117 0.0 0.0 0.00 0.05 0.05 99 1007.5
20260506093308 43 111 0.0 0.0 0.00 0.05 0.05 99 1007.7
20260506092806 43 116 0.0 0.0 0.00 0.05 0.05 99 1007.7
20260506092305 43 117 0.0 0.0 0.00 0.05 0.05 99 1007.6
20260506091800 43 121 0.0 0.0 0.00 0.05 0.05 99 1007.4
20260506091258 43 120 0.0 0.0 0.00 0.05 0.05 99 1006.9
20260506090756 43 141 1.0 1.0 0.00 0.05 0.05 99 1006.6
20260506090252 43 112 0.0 0.0 0.00 0.05 0.05 99 1005.9
20260506085749 43 81 0.0 0.0 0.00 0.05 0.05 99 1005.7
20260506085245 43 105 0.0 0.0 0.00 0.05 0.05 99 1006.0
20260506084742 43 102 0.0 0.0 0.00 0.05 0.05 99 1006.2
20260506084238 43 90 1.0 1.0 0.00 0.05 0.05 99 1006.3
20260506083735 43 103 0.0 0.0 0.00 0.05 0.05 99 1006.4
20260506083233 43 103 0.0 0.0 0.00 0.05 0.05 99 1006.4
20260506082730 43 104 0.0 1.0 0.00 0.05 0.05 99 1006.6
20260506082226 43 113 0.0 1.0 0.00 0.05 0.05 99 1006.3
20260506081724 43 86 1.0 1.0 0.00 0.05 0.05 99 1006.6
20260506081221 43 109 2.0 2.0 0.00 0.05 0.05 99 1006.5
20260506080720 43 114 0.0 0.0 0.00 0.05 0.05 99 1007.0
20260506080215 43 102 0.0 0.0 0.00 0.05 0.05 99 1007.0
20260506073200 43 100 0.0 0.0 0.00 0.05 0.05 99 1006.8
20260506072656 43 120 0.0 1.0 0.00 0.05 0.05 99 1006.8
20260506072154 43 114 0.0 0.0 0.00 0.05 0.05 99 1006.8
20260506071651 43 155 1.0 1.0 0.00 0.05 0.05 99 1007.1
20260506071149 43 111 0.0 0.0 0.00 0.05 0.05 99 1007.0
20260506070645 43 109 0.0 0.0 0.00 0.05 0.05 99 1006.7
20260506070142 43 118 2.0 3.0 0.00 0.05 0.05 99 1006.9
20260506062120 43 112 0.0 0.0 0.00 0.05 0.05 99 1006.8
20260506061616 43 117 0.0 0.0 0.00 0.05 0.05 99 1007.3
20260506061114 43 164 1.0 1.0 0.05 0.05 0.05 99 1007.2
20260506060612 43 112 0.0 0.0 0.05 0.05 0.05 99 1007.2
20260506060108 43 101 0.0 0.0 0.14 0.04 0.04 99 1006.9
20260506051040 43 96 0.0 0.0 0.00 0.00 0.00 99 1006.1
20260506050538 43 103 0.0 0.0 0.00 0.00 0.00 99 1006.4
20260506045029 42 90 1.0 1.0 0.00 0.10 0.10 99 1005.9
20260506044527 42 75 1.0 1.0 0.00 0.10 0.10 99 1005.6
20260506044023 42 86 0.0 0.0 0.00 0.10 0.10 99 1006.1
20260506043520 42 92 0.0 0.0 0.00 0.10 0.10 99 1006.1
20260506043019 42 104 2.0 3.0 0.00 0.10 0.10 99 1005.9
20260506042518 43 135 1.0 1.0 0.00 0.10 0.10 99 1006.0
20260506042015 42 60 2.0 2.0 0.00 0.10 0.10 99 1006.2
20260506041514 42 89 0.0 0.0 0.00 0.10 0.10 99 1006.6
20260506041010 43 107 0.0 0.0 0.00 0.10 0.10 99 1006.6
20260506040508 43 84 0.0 0.0 0.00 0.10 0.10 99 1006.7
20260506040003 43 115 0.0 0.0 0.00 0.10 0.10 99 1007.2
20260506035501 43 114 0.0 0.0 0.00 0.10 0.10 99 1006.5
20260506034957 43 93 1.0 1.0 0.00 0.10 0.10 99 1006.2
20260506034455 43 110 0.0 0.0 0.00 0.10 0.10 99 1005.8
20260506033951 43 48 1.0 2.0 0.00 0.10 0.10 99 1005.7
20260506033449 43 98 1.0 2.0 0.00 0.10 0.10 99 1005.7
20260506032945 43 122 0.0 1.0 0.05 0.10 0.10 99 1005.6
20260506032443 43 113 3.0 5.0 0.12 0.10 0.10 99 1005.6
20260506031939 43 108 1.0 1.0 0.31 0.09 0.09 99 1005.2
20260506031437 44 100 0.0 1.0 0.24 0.08 0.08 99 1005.5
20260506030934 44 81 1.0 1.0 0.00 0.04 0.04 99 1005.5
20260506030432 44 120 0.0 0.0 0.00 0.04 0.04 99 1005.7
20260506025929 44 116 1.0 1.0 0.00 0.04 0.04 99 1005.5
20260506025426 44 98 1.0 2.0 0.00 0.04 0.04 99 1005.4
20260506024922 44 80 1.0 2.0 0.00 0.04 0.04 99 1005.6
20260506024419 44 95 1.0 2.0 0.00 0.04 0.04 99 1005.6
20260506023915 44 75 2.0 2.0 0.05 0.04 0.04 99 1005.5
20260506023412 44 114 0.0 1.0 0.05 0.04 0.04 99 1005.3
20260506022909 44 109 1.0 1.0 0.00 0.03 0.03 99 1005.0
20260506022407 44 137 2.0 2.0 0.00 0.03 0.03 99 1005.1
20260506021904 44 115 0.0 0.0 0.00 0.03 0.03 99 1004.7
20260506021401 44 116 0.0 0.0 0.00 0.03 0.03 99 1004.8
20260506020858 44 86 0.0 1.0 0.00 0.03 0.03 99 1004.5
20260506020356 44 68 1.0 1.0 0.00 0.03 0.03 99 1004.5
20260506015853 44 112 1.0 2.0 0.00 0.03 0.03 99 1004.5
20260506015351 44 109 2.0 3.0 0.00 0.03 0.03 99 1004.5
20260506014847 44 98 3.0 6.0 0.00 0.03 0.03 99 1004.7
20260506014344 44 114 1.0 2.0 0.00 0.03 0.03 99 1004.4
20260506013840 44 92 1.0 2.0 0.00 0.03 0.03 99 1004.1
20260506013338 44 132 0.0 1.0 0.07 0.03 0.03 99 1004.3
20260506012834 44 94 2.0 3.0 0.12 0.03 0.03 99 1004.0
20260506012331 45 107 1.0 1.0 0.05 0.02 0.02 99 1004.1
20260506011829 45 111 0.0 0.0 0.00 0.01 0.01 99 1004.4
20260506011325 45 114 0.0 0.0 0.00 0.01 0.01 99 1004.4
20260506010823 45 97 0.0 0.0 0.00 0.01 0.01 99 1004.2
20260506010320 45 93 0.0 0.0 0.00 0.01 0.01 99 1004.0
20260506005817 45 97 1.0 1.0 0.00 0.01 0.01 99 1004.2
20260506005314 45 92 2.0 2.0 0.00 0.01 0.01 99 1004.1
20260506004810 45 64 0.0 1.0 0.00 0.01 0.01 99 1003.7
20260506004308 45 101 3.0 5.0 0.00 0.01 0.01 99 1003.8
20260506003803 45 120 1.0 1.0 0.00 0.01 0.01 99 1003.5
20260506003300 45 94 1.0 1.0 0.00 0.01 0.01 99 1003.7
20260506002757 45 114 0.0 1.0 0.00 0.01 0.01 99 1004.0
20260506002253 45 102 0.0 0.0 0.00 0.01 0.01 99 1003.7
20260506001749 45 110 1.0 1.0 0.07 0.01 0.01 99 1003.5
20260506001247 45 93 0.0 1.0 0.07 0.01 0.01 99 1003.5
20260506000743 45 89 1.0 2.0 0.00 0.00 0.00 99 1003.6
20260506000241 45 113 3.0 5.0 0.00 0.00 0.00 99 1003.7
20260505235737 45 114 0.0 0.0 0.00 0.00 0.00 99 1003.7
20260505235235 45 94 3.0 5.0 0.00 0.00 0.00 99 1003.2
20260505234732 46 99 3.0 3.0 0.00 0.00 0.00 99 1002.9
20260505234230 46 92 1.0 1.0 0.00 0.00 0.00 99 1003.2
20260505233726 45 120 2.0 3.0 0.00 0.00 0.00 98 1002.9
20260505233224 46 116 0.0 0.0 0.00 0.00 0.00 98 1003.3
20260505232721 46 19 3.0 5.0 0.00 0.00 0.00 98 1003.1
20260505232218 46 71 0.0 1.0 0.00 0.00 0.00 97 1003.4
20260505231715 46 69 2.0 2.0 0.00 0.00 0.00 97 1003.1
20260505231214 46 123 1.0 1.0 0.00 0.00 0.00 97 1003.3
20260505230712 46 94 0.0 1.0 0.00 0.00 0.00 97 1003.5
20260505230208 46 131 1.0 2.0 0.00 0.00 0.00 96 1003.3
20260505225704 47 99 1.0 1.0 0.00 0.00 0.00 96 1003.3
20260505225201 47 77 3.0 5.0 0.00 0.00 0.00 96 1003.2
20260505224656 47 74 2.0 3.0 0.00 0.00 0.00 96 1002.9
20260505224155 47 109 0.0 1.0 0.00 0.00 0.00 96 1003.2
20260505223652 47 290 1.0 2.0 0.00 0.00 0.00 96 1002.9
20260505223147 47 104 1.0 1.0 0.00 0.00 0.00 96 1002.8
20260505222644 47 95 2.0 3.0 0.00 0.00 0.00 96 1002.9
20260505222140 47 50 1.0 2.0 0.00 0.00 0.00 96 1002.9
20260505221637 48 95 2.0 2.0 0.00 0.00 0.00 97 1002.8
20260505221134 48 67 3.0 3.0 0.00 0.00 0.00 96 1003.0
20260505220632 48 107 3.0 5.0 0.00 0.00 0.00 96 1003.2
20260505220129 48 104 1.0 1.0 0.00 0.00 0.00 95 1003.1
20260505215627 48 89 1.0 2.0 0.00 0.00 0.00 95 1002.8
20260505215125 48 112 1.0 2.0 0.00 0.00 0.00 95 1002.8
20260505214622 48 126 2.0 3.0 0.00 0.00 0.00 95 1002.8
20260505214119 48 110 0.0 1.0 0.00 0.00 0.00 96 1002.7
20260505213617 48 120 2.0 2.0 0.00 0.00 0.00 96 1002.5
20260505213113 48 54 1.0 2.0 0.00 0.00 0.00 96 1002.5